Flag for United Kingdom Weather past 2 weeks in Hinckley, England, United Kingdom

Now
54 °F

Duststorm.


Feels Like: 53 °F
Forecast: 51 / 70 °F
Wind: 5 mph from Northeast

Location: Church Lawford

Current Time: Sep 15, 2014 at 3:56:28 AM

Latest Report: Sep 15, 2014 at 3:00 AM


Visibility: 0 mi

Pressure: 30.14 "Hg

Humidity: 96%

Dew point: 53 °F

Location of HinckleyLocation

Historic Weather in Hinckley — Graph

°F

Hinckley temperature yesterday

Maximum temperature yesterday: 66 °F (at 2:00 PM)
Minimum temperature yesterday: 48 °F (at 2:00 AM)
Average temperature yesterday: 58 °F

Past Weeks' High & Low Weather Summary

 TemperatureHumidityPressure
High71 °F (Sep 3, 5:00 PM)100% (Sep 2, 8:00 AM)30.36 "Hg (Sep 2, 8:00 AM)
Low41 °F (Sep 8, 7:00 AM)40% (Sep 7, 6:00 PM)29.93 "Hg (Sep 6, 5:00 PM)
Average59 °F80%30.15 "Hg
* Reported Aug 31 2:00 AM — Sep 15 2:00 AM, Hinckley, Weather by CustomWeather, © 2014

Note: Actual official high and low records may vary slightly from our data, if they occured in-between our weather recording intervals... More about our weather records

Advertising

Hinckley weather history for previous 24 hours

 ConditionsComfort  
Time TempWeatherWind HumidityBarometerVisibility
2:00 AM
Sep 15
54 °FFog.3 mph95%30.15 "Hg4 mi
1:00 AM54 °FFog.5 mph96%30.16 "Hg4 mi
12:00 AM55 °FCool.6 mph93%30.16 "Hg7 mi
11:00 PM
Sep 14
57 °FCool.9 mph89%30.17 "Hg11 mi
10:00 PM58 °FCool.6 mph89%30.17 "Hg8 mi
9:00 PM58 °FCool.8 mph86%30.18 "Hg11 mi
8:00 PM59 °FCool.8 mph82%30.16 "Hg11 mi
7:00 PM62 °FCool.10 mph75%30.16 "Hg14 mi
6:00 PM64 °FMild.12 mph68%30.16 "Hg17 mi
5:00 PM65 °FMild.10 mph65%30.17 "Hg25 mi
4:00 PM65 °FMild.9 mph68%30.18 "Hg16 mi
3:00 PM65 °FMild.9 mph66%30.19 "Hg14 mi
2:00 PM66 °FMild.9 mph67%30.21 "Hg15 mi
1:00 PM65 °FMild.10 mph67%30.23 "Hg12 mi
12:00 PM63 °FMild.8 mph73%30.25 "Hg13 mi
11:00 AM63 °FMild.9 mph76%30.26 "Hg11 mi
10:00 AM59 °FCool.10 mph81%30.27 "Hg8 mi
9:00 AM58 °FSmoke.9 mph87%30.27 "Hg7 mi
8:00 AM56 °FSmoke.7 mph91%30.27 "Hg5 mi
7:00 AM53 °FFog.3 mph96%30.29 "Hg4 mi
6:00 AM51 °FFog.3 mph97%30.29 "Hg3 mi
5:00 AM50 °FCool.3 mph97%30.30 "Hg3 mi
4:00 AM51 °FFog.2 mph97%30.32 "Hg3 mi
3:00 AM49 °FFog.3 mph99%30.33 "Hg3 mi
Weather by CustomWeather, © 2014

See weather overviewHow to use our weather pages